Regional Weather Roundup
Issued by NWS Burlington, VT

Current Version | Previous Version | Text Only | Print | Product List | Glossary Off
Versions: 1 2 3 4 5 6 7 8 9 10 11 12 13 14 15 16 17 18 19 20 21 22 23 24 25 26 27 28 29 30 31 32 33 34 35 36 37 38 39 40 41 42 43 44 45 46 47 48 49 50

000
ASUS41 KBTV 060010
RWRBTV
VERMONT REGIONAL WEATHER ROUNDUP
NATIONAL WEATHER SERVICE BURLINGTON VT
700 PM EST MON DEC 05 2016

NOTE: "FAIR" INDICATES FEW OR NO CLOUDS BELOW 12,000 FEET WITH NO
SIGNIFICANT WEATHER AND/OR OBSTRUCTIONS TO VISIBILITY.

* THESE REPORTS ARE NOT UNDER NWS QUALITY CONTROL AND/OR DO NOT
  REPORT WEATHER SUCH AS PRECIPITATION AND FOG.

VTZ001>019-060100-
_____VERMONT_____


CITY           SKY/WX    TMP DP  RH WIND       PRES   REMARKS
BURLINGTON     CLOUDY    36  29  75 NW9       29.96R WCI  29
6HR MIN TEMP:  33; 6HR MAX TEMP:  37; 6HR PCP: TRACE;

MONTPELIER     CLOUDY    30  28  92 S5        29.93R WCI  25
6HR MIN TEMP:  28; 6HR MAX TEMP:  30; 6HR PCP:  0.01;

MORRISVILLE    LGT SNOW  30  27  88 NW7       29.94R FOG     WCI  23
6HR MIN TEMP:  28; 6HR MAX TEMP:  30; 6HR PCP:  0.05;

ST. JOHNSBURY*   N/A     31  29  92 MISG      29.90R
6HR MIN TEMP:  27; 6HR MAX TEMP:  31; 6HR PCP:  0.01;

LYNDONVILLE*   LGT SNOW  28  28  98 CALM      29.90R
6HR MIN TEMP:  26; 6HR MAX TEMP:  28;

MIDDLEBURY*    CLOUDY   N/A N/A N/A CALM      29.95R
RUTLAND*       CLOUDY    37  30  75 W5        29.94R
6HR MIN TEMP:  33; 6HR MAX TEMP:  37;

SPRINGFIELD    PTCLDY    25  23  92 CALM      29.95R FOG
6HR MIN TEMP:  24; 6HR MAX TEMP:  31; 6HR PCP: TRACE;

HIGHGATE*      CLOUDY    28  27  95 N3        29.97R
6HR MIN TEMP:  28; 6HR MAX TEMP:  33;

NEWPORT*       LGT SNOW  29  28  96 W3        29.91R
6HR MIN TEMP:  28; 6HR MAX TEMP:  29;

BENNINGTON     CLOUDY    37  30  75 W9        29.96R WCI  30
6HR MIN TEMP:  37; 6HR MAX TEMP:  41;

SUTTON*          N/A     27 N/A N/A MISG        N/A

_____LAKE CHAMPLAIN_____


CITY           SKY/WX    TMP DP  RH WIND       PRES   REMARKS
BURTON ISLAND*   N/A     34  32  93 NW5         N/A  WCI  30
COLCHESTER RF*   N/A     37  32  81 NW16        N/A  WCI  28
DIAMOND ISL*     N/A     36  32  87 E5          N/A  WCI  32

$$

NYZ007-026>031-035-052-083-087-060100-
_____NORTHERN NEW YORK_____


CITY           SKY/WX    TMP DP  RH WIND       PRES   REMARKS
PLATTSBURGH    CLOUDY    32  31  96 CALM      29.97R
6HR MIN TEMP:  32; 6HR MAX TEMP:  34; 6HR PCP: TRACE;

SARANAC LAKE   CLOUDY    30  26  85 W6        29.91R WCI  24
6HR MIN TEMP:  29; 6HR MAX TEMP:  32; 6HR PCP:  0.01;

MASSENA        CLOUDY    33  28  81 CALM      30.00R
6HR MIN TEMP:  31; 6HR MAX TEMP:  33; 6HR PCP: TRACE;

OGDENSBURG*    CLOUDY    34  32  93 SW3       29.98R
6HR MIN TEMP:  34; 6HR MAX TEMP:  37;

POTSDAM*       CLOUDY    34  34 100 SW5       29.98R WCI  30
WATERTOWN      CLOUDY    40  33  76 W8        30.00R
6HR MIN TEMP:  38; 6HR MAX TEMP:  40; 6HR PCP: TRACE;

FT DRUM        CLOUDY    36  32  87 W3        29.98R
6HR MIN TEMP:  35; 6HR MAX TEMP:  36; 6HR PCP: TRACE;

ALBANY         LGT RAIN  39  31  72 W12       30.00R WCI  32
6HR MIN TEMP:  38; 6HR MAX TEMP:  42; 6HR PCP: TRACE;

GLENS FALLS    CLOUDY    39  31  72 CALM      29.97R
6HR MIN TEMP:  34; 6HR MAX TEMP:  39;


$$
NHZ002-005-011-060100-
_____NEW HAMPSHIRE_____


CITY           SKY/WX    TMP DP  RH WIND       PRES   REMARKS
LEBANON        CLOUDY    29  27  92 CALM      29.93R
6HR MIN TEMP:  25; 6HR MAX TEMP:  32; 6HR PCP:  0.01;

KEENE          CLOUDY    29  27  92 CALM      29.95R
6HR MIN TEMP:  29; 6HR MAX TEMP:  34;

MT WASHINGTON  SNOWSHWR  14  14 100 W49G61      N/A  VSB 0   WCI -11
6HR MIN TEMP:  13; 6HR MAX TEMP:  15; 6HR PCP:  0.22;

PLYMOUTH         N/A     28  27  97 CALM      29.91S
6HR MIN TEMP:  27; 6HR MAX TEMP:  29; 6HR PCP:  0.01;

WHITEFIELD     CLOUDY    29  26  89 CALM      29.88R
6HR MIN TEMP:  27; 6HR MAX TEMP:  29; 6HR PCP:  0.03;


$$

_____REGIONAL QUEBEC LOCATIONS_____


CITY           SKY/WX    TMP DP  RH WIND       PRES   REMARKS
MONTREAL       CLOUDY    27  23  86 SW5       29.98R WCI  21
QUEBEC CITY    LGT SNOW  25  23  93 E7        29.92R FOG     WCI  17
SHERBROOKE     LGT SNOW  28  27  93 W7        29.88R WCI  21

_____REGIONAL ONTARIO LOCATIONS_____


CITY           SKY/WX    TMP DP  RH WIND       PRES   REMARKS
OTTAWA         CLOUDY    27  25  93 S3        29.98R

______KEY______
VSB  - VISIBILITY IN MILES
WCI  - WIND CHILL INDEX
HX   - HEAT INDEX
$$
NNNN




USA.gov is the U.S. government's official web portal to all federal, state and local government web resources and services.